TimeEDT,TemperatureF,Dew PointF,Humidity,Sea Level PressureIn,VisibilityMPH,Wind Direction,Wind SpeedMPH,Gust SpeedMPH,PrecipitationIn,Events,Conditions,WindDirDegrees,DateUTC
12:54 AM,66.9,64.9,93,30.17,8.0,Calm,Calm,-,N/A,,Clear,0,2013-08-21 04:54:00
1:54 AM,64.9,62.1,90,30.16,10.0,Calm,Calm,-,N/A,,Clear,0,2013-08-21 05:54:00
2:54 AM,64.0,61.0,90,30.17,10.0,Calm,Calm,-,N/A,,Clear,0,2013-08-21 06:54:00
3:54 AM,63.0,61.0,93,30.17,5.0,Calm,Calm,-,N/A,,Clear,0,2013-08-21 07:54:00
4:01 AM,62.6,60.8,94,30.17,1.8,Calm,Calm,-,N/A,,Clear,0,2013-08-21 08:01:00
4:13 AM,62.6,60.8,94,30.17,3.0,Calm,Calm,-,0.01,,Clear,0,2013-08-21 08:13:00
4:41 AM,62.6,60.8,94,30.17,1.0,Calm,Calm,-,0.01,,Mist,0,2013-08-21 08:41:00
4:54 AM,62.1,60.1,93,30.18,7.0,Calm,Calm,-,0.01,,Partly Cloudy,0,2013-08-21 08:54:00
5:54 AM,61.0,59.0,93,30.19,8.0,Calm,Calm,-,N/A,,Clear,0,2013-08-21 09:54:00
6:54 AM,62.1,59.0,90,30.20,6.0,Calm,Calm,-,N/A,,Clear,0,2013-08-21 10:54:00
7:09 AM,62.6,60.8,94,30.19,7.0,Calm,Calm,-,N/A,,Partly Cloudy,0,2013-08-21 11:09:00
7:54 AM,64.0,62.1,93,30.21,6.0,Calm,Calm,-,N/A,,Partly Cloudy,0,2013-08-21 11:54:00
8:54 AM,69.1,64.0,84,30.21,7.0,Calm,Calm,-,N/A,,Clear,0,2013-08-21 12:54:00
9:54 AM,73.0,64.0,73,30.21,6.0,Calm,Calm,-,N/A,,Haze,0,2013-08-21 13:54:00
10:54 AM,79.0,64.9,62,30.20,10.0,Calm,Calm,-,N/A,,Clear,0,2013-08-21 14:54:00
11:54 AM,82.0,61.0,49,30.19,10.0,Calm,Calm,-,0.00,,Clear,0,2013-08-21 15:54:00
12:54 PM,84.9,61.0,44,30.19,10.0,Variable,4.6,-,N/A,,Clear,0,2013-08-21 16:54:00
1:54 PM,88.0,63.0,43,30.17,10.0,Variable,3.5,-,N/A,,Clear,0,2013-08-21 17:54:00
2:54 PM,88.0,66.9,49,30.14,10.0,West,5.8,-,N/A,,Partly Cloudy,260,2013-08-21 18:54:00
3:54 PM,87.1,66.0,49,30.12,10.0,SW,3.5,-,N/A,,Clear,230,2013-08-21 19:54:00
4:54 PM,86.0,66.9,53,30.10,10.0,West,4.6,-,N/A,,Clear,270,2013-08-21 20:54:00
5:54 PM,86.0,66.9,53,30.09,10.0,West,4.6,-,N/A,,Partly Cloudy,270,2013-08-21 21:54:00
6:54 PM,82.9,71.1,67,30.08,10.0,Calm,Calm,-,N/A,,Scattered Clouds,0,2013-08-21 22:54:00
7:54 PM,80.1,71.1,74,30.08,10.0,South,6.9,-,N/A,,Partly Cloudy,170,2013-08-21 23:54:00
8:26 PM,78.8,69.8,74,30.08,10.0,SSW,6.9,-,N/A,Thunderstorm,Clear,200,2013-08-22 00:26:00
8:41 PM,78.8,69.8,74,30.08,10.0,South,6.9,-,N/A,,Clear,170,2013-08-22 00:41:00
8:54 PM,78.1,69.1,74,30.09,10.0,South,4.6,-,N/A,,Scattered Clouds,180,2013-08-22 00:54:00
9:54 PM,75.9,69.1,79,30.09,10.0,Calm,Calm,-,N/A,,Mostly Cloudy,0,2013-08-22 01:54:00
10:54 PM,75.9,69.1,79,30.08,10.0,SSE,6.9,-,N/A,,Clear,160,2013-08-22 02:54:00
11:54 PM,75.0,69.1,82,30.07,10.0,SSE,4.6,-,N/A,,Clear,160,2013-08-22 03:54:00